{"data":{"norad_id":65777,"epoch":"2026-05-25T03:00:38.181024Z","epoch_age_seconds":68222,"freshness":"FRESH","line1":"1 65777U 25217R   26145.12544191  .00124858  00000+0  60603-3 0  9999","line2":"2 65777  51.8952  25.3503 0002337 167.3085 192.7980 15.81576686 36746","mean_motion":15.81576686,"eccentricity":0.0002337,"inclination_deg":51.8952,"raan_deg":25.3503,"arg_perigee_deg":167.3085,"mean_anomaly_deg":192.798,"bstar":0.00060603,"rev_number":3674,"period_min":91.048383094337,"perigee_km":324.41458634019,"apogee_km":327.54809125174,"semimajor_km":6704.118338796,"source":"CELESTRAK","updated_at":"2026-05-25T13:38:05.687274Z"}}